星链-30865 (STARLINK-30865 )

导读

STARLINK-30865是美国太空探索技术公司SpaceX星链互联网卫星星座中的一员,于2023年11月3日发射升空,归属Starlink Group组群,星链星座通过批量发射低轨卫星组网,旨在为全球提供高速卫星互联网接入服务,该卫星后续将在近地轨道运行,为星链网络覆盖能力提供支撑。

基本信息
目录编号:
58226
目录名称:
STARLINK-30865
国际标识:
2023-170W
轨道中心:
EARTH
卫星名称:
星链-30865
卫星全名:
星链-30865 (STARLINK-30865 )
卫星状态:
在轨 (已飞行1036 天)
发射日期:
2023-11-03 UTC
国别 :
美国 (US)
星等 :
--
轨道信息
数据来源 国际轨道数据
星历时间: 2026-09-04T09:53:30+0800
9小时前
查看轨道信息
半长轴: 6861.187km
偏心率: 0.0001261
轨道倾角: 43.006°
近地点辐角 272.725°
升交点赤经 255.570°
平近点角 87.346°
近地点: 482.184km
远地点: 483.916km
周期: 94.267分钟
每日圈数: 15.275799
详细信息
固有亮度:
5
最大亮度:
0.3
卫星平台:
Starlink v2.0 mini
覆盖范围:
全球
运营商:
太空探索技术公司
运营商所在国:
美国
制造商(研发单位):
太空探索技术公司
制造商所在国:
美国
使用方式:
暂无
卫星简介
星链(Starlink)计划是由太空探索技术公司(SpaceX)提出的一个巨型低轨卫星互联网星座项目,计划在2019年至2024年间在太空搭建由约1.2万颗卫星组成的“星链”网络,其中1584颗将部署在地球上空550千米处的近地轨道,并从2020年开始工作。该卫星仍在工作。
2D轨道图
3D轨道图
轨道高度分析图
轨道倾角分析图
轨道综合分析图
查看轨道综合分析图
交会数据列表
事件ID 空间交会对象 最接近时刻(TCA) 交会距离 交会风险概率(CRP) 交会风险指数(CRI) 操作
CDM_260904-013605-822605-912422
VSP ROSE (59124)
2026-09-04T
01:36:38+0000
2.907 km
极远距离
1.30921E-6 低风险 0.37